Regional Weather Roundup
Issued by NWS

Home | Current Version | Previous Version | Text Only | Print | Product List | Glossary On
Versions: 1 2 3 4 5 6 7 8 9 10 11 12 13 14 15 16 17 18 19 20 21 22 23 24 25 26 27
000
ASUS42 KKEY 201810
RWRKEY

FLORIDA REGIONAL WEATHER ROUNDUP FOR THE FLORIDA KEYS
NATIONAL WEATHER SERVICE KEY WEST FLORIDA
100 PM EST MON FEB 20 2017

...SOUTH FLORIDA AND THE KEYS...

CITY           SKY/WX    TMP DP  RH WIND       PRES   REMARKS
FORT MYERS     SUNNY     85  56  37 E8        30.09F
SW REGIONAL AP SUNNY     82  56  40 VRB6      30.09F
NAPLES         SUNNY     84  55  36 NE8       30.09F
MIAMI          PTSUNNY   77  62  59 E13       30.10F
WEST KENDALL   PTSUNNY   82  62  50 E12       30.10F
HOMESTEAD      SUNNY     79  67  65 E12       30.10F
MARATHON       MOSUNNY   82  66  58 E12G18    30.09F
BOCA CHICA NAS SUNNY     79  66  64 E16G26    30.09F
KEY WEST INTL  MOSUNNY   81  68  64 E12       30.09F

...INTERNATIONAL WEATHER...

CITY           SKY/WX    TMP DP  RH WIND       PRES   REMARKS
NASSAU BAHAMAS MOSUNNY   70  66  88 NW10      30.11F
CANCUN MEXICO  PTSUNNY   82  70  65 SE17      30.04F
COZUMEL MEXICO PTSUNNY   84  72  65 SE13      30.01F

ADJACENT COASTAL WATERS...

STATION/POSITION TIME  SKY/WX   TEMP    WIND        PRES    WAVE
                                AIR SEA DIR/SP/G            HT/PER
                 (UTC)          (F)     (DEG/KT/KT) (MB)    (FT/S)
PULASKI SHOAL LI 1800            74     100/ 10/ 11 1018.7F
SAND KEY         1750            76      90/ 14/ 19 1019.5F
LONG KEY         1700            76 77   90/ 12/ 14 1020.1F
MOLASSES REEF    1800            75 77  100/ 11/ 12 1019.4
FOWEY ROCKS      1800            74 77   70/ 14/ 15 1020.0F
Buoy 42097       1800                                 N/A     2/ 7

$$




USA.gov is the U.S. government's official web portal to all federal, state and local government web resources and services.